Weather History for KLWM - July, 2013

Change the Weather History Date:

Thursday, July 11, 2013

  Actual Average Record
Temperature  
Mean Temperature 78 °F -  
Max Temperature 84 °F 83 °F 97 °F (1993)
Min Temperature 73 °F 62 °F 53 °F (1953)
Cooling Degree Days 12    
Growing Degree Days 28 (Base 50)    
Moisture  
Dew Point 70 °F    
Average Humidity 81    
Maximum Humidity 91    
Minimum Humidity 63    
Precipitation  
Precipitation 0.06 in - - ()
Sea Level Pressure  
Sea Level Pressure 29.84 in    
Wind  
Wind Speed 5 mph (SW)    
Max Wind Speed 9 mph    
Max Gust Speed -    
Visibility 8 miles    
Events Rain    
Averages and records for this station are not official NWS values.
T = Trace of Precipitation, MM = Missing Value Source: NWS Daily Summary

Daily Weather History Graph

Daily Weather History Graph

Search for Another Location

Airport or City:

Trip Planner

Search our weather history database for the weather conditions in past years. The results will help you decide how hot, cold, wet, or windy it might be!

Date:

Astronomy

Jul. 11, 2013 Rise Set
Actual Time 5:16 AM EDT 8:22 PM EDT
Civil Twilight 4:42 AM EDT 8:56 PM EDT
Nautical Twilight 3:58 AM EDT 9:40 PM EDT
Astronomical Twilight 3:06 AM EDT 10:32 PM EDT
Moon 8:37 AM EDT (7/11) 9:55 PM EDT (7/11)
Length of Visible Light 16h 14m
Length of Day
15h 06m
Waxing Crescent, 10% of the Moon is Illuminated
Jul 11
Waxing Crescent
Jul 15
First Quarter
Jul 22
Full
Jul 29
Last Quarter
Aug 6
New

Hourly Weather History & Observations

Time (EDT) Temp. Heat Index Dew Point Humidity Pressure Visibility Wind Dir Wind Speed Gust Speed Precip Events Conditions
12:54 AM 77.0 °F - 72.0 °F 84% 29.81 in 7.0 mi SSW 5.8 mph - N/A   Overcast
1:34 AM 77.0 °F - 71.6 °F 83% 29.80 in 7.0 mi SSW 5.8 mph - N/A   Overcast
1:54 AM 75.9 °F - 72.0 °F 87% 29.79 in 6.0 mi SSW 3.5 mph - N/A   Partly Cloudy
2:54 AM 75.0 °F - 71.1 °F 87% 29.78 in 6.0 mi SSW 4.6 mph - N/A   Clear
3:05 AM 75.2 °F - 71.6 °F 89% 29.79 in 5.0 mi Calm Calm - N/A   Scattered Clouds
3:15 AM 75.2 °F - 71.6 °F 89% 29.79 in 5.0 mi SSW 4.6 mph - N/A   Mostly Cloudy
3:54 AM 75.0 °F - 71.1 °F 87% 29.79 in 5.0 mi SSW 6.9 mph - N/A   Overcast
4:54 AM 73.9 °F - 71.1 °F 91% 29.81 in 6.0 mi SSW 3.5 mph - N/A   Mostly Cloudy
5:22 AM 73.4 °F - 69.8 °F 88% 29.81 in 5.0 mi SSW 5.8 mph - N/A   Partly Cloudy
5:54 AM 73.9 °F - 71.1 °F 91% 29.81 in 4.0 mi SSW 4.6 mph - N/A   Clear
6:54 AM 75.0 °F - 71.1 °F 87% 29.82 in 7.0 mi SW 5.8 mph - N/A   Clear
7:54 AM 77.0 °F - 71.1 °F 82% 29.82 in 8.0 mi SW 6.9 mph - N/A   Partly Cloudy
8:54 AM 77.0 °F - 71.1 °F 82% 29.82 in 9.0 mi WSW 8.1 mph - 0.00 in   Partly Cloudy
9:54 AM 77.0 °F - 71.1 °F 82% 29.85 in 2.5 mi WSW 9.2 mph - 0.03 in Rain Rain
10:17 AM 75.2 °F - 69.8 °F 83% 29.85 in 8.0 mi Calm Calm - 0.02 in Rain Light Rain
10:54 AM 75.9 °F - 71.1 °F 85% 29.86 in 9.0 mi Calm Calm - 0.02 in Rain Light Rain
11:54 AM 75.9 °F - 70.0 °F 82% 29.85 in 10.0 mi South 4.6 mph - 0.01 in   Overcast
12:54 PM 80.1 °F 83.8 °F 72.0 °F 76% 29.85 in 10.0 mi SW 5.8 mph - N/A   Mostly Cloudy
1:54 PM 82.0 °F 85.9 °F 70.0 °F 67% 29.84 in 10.0 mi WSW 5.8 mph - N/A   Scattered Clouds
2:54 PM 82.9 °F 86.5 °F 69.1 °F 63% 29.83 in 10.0 mi West 4.6 mph - N/A   Partly Cloudy
3:54 PM 82.0 °F 85.9 °F 70.0 °F 67% 29.83 in 10.0 mi SSW 6.9 mph - N/A   Mostly Cloudy
4:15 PM 82.4 °F 87.2 °F 71.6 °F 70% 29.84 in 10.0 mi SSW 4.6 mph - N/A   Mostly Cloudy
4:54 PM 82.9 °F 87.0 °F 70.0 °F 65% 29.84 in 10.0 mi South 4.6 mph - N/A   Clear
5:54 PM 75.9 °F - 66.9 °F 74% 29.86 in 10.0 mi North 4.6 mph - N/A   Mostly Cloudy
6:54 PM 75.9 °F - 68.0 °F 76% 29.87 in 10.0 mi North 5.8 mph - N/A   Mostly Cloudy
7:54 PM 75.9 °F - 68.0 °F 76% 29.89 in 10.0 mi Calm Calm - N/A   Partly Cloudy
8:54 PM 75.0 °F - 68.0 °F 79% 29.90 in 10.0 mi NW 3.5 mph - N/A   Partly Cloudy
9:54 PM 75.0 °F - 69.1 °F 82% 29.93 in 10.0 mi WNW 3.5 mph - N/A   Overcast
10:54 PM 73.0 °F - 68.0 °F 84% 29.94 in 10.0 mi Calm Calm - N/A   Mostly Cloudy
11:43 PM 73.4 °F - 69.8 °F 88% 29.95 in 8.0 mi NNE 8.1 mph - N/A   Scattered Clouds
11:54 PM 73.0 °F - 69.1 °F 87% 29.95 in 7.0 mi NNE 6.9 mph - N/A   Scattered Clouds